Location: Unspecified
(58.9933°N, 5.6375°E)
Time: 19:14:07
(UTC+02:00)

Cosmos 1674 - Visible Passes

Search period start: 24 June 2017 00:00
Search period end: 04 July 2017 00:00
Orbit: 497 x 524 km, 82.5° (Epoch: 23 June)

Date Brightness Start Highest point End Pass type
(mag) Time Alt. Az. Time Alt. Az. Time Alt. Az.
26 Jun 6.0 00:56:32 10° WNW 00:57:16 10° NW 00:58:00 10° NW visible
27 Jun 5.8 00:39:02 10° WNW 00:40:32 12° NW 00:42:01 10° NNW visible
28 Jun 5.7 00:21:51 10° W 00:23:48 14° NW 00:25:47 10° NNW visible
